This demonstration page uses our WeatherBlox Daily Observations layout. Learn more.

Left ArrowRight Arrow

41.86663, -103.66717

Hourly Observations for January 9, 2016

Temp ( °F °C ) Dew Point ( °F °C ) Humidity (%) Winds ( mph kmh ) Pressure ( in mb ) Visibility ( mi km ) Precip ( " mm )
12:53 am 00:53 Cloudy with Mist and Fog 14 -10 11 -11.7 88 88 WNW 6 9 30.17 1022 5 8 N/A
1:53 am 01:53 Cloudy with Mist and Fog 14 -10 11 -11.7 88 88 WNW 6 9 30.17 1022 6 10 N/A
2:53 am 02:53 Cloudy with Mist and Fog 13 -10.6 10 -12.2 88 88 NW 8 13 30.17 1022 6 10 N/A
3:53 am 03:53 Mostly Cloudy 9 -12.8 7 -13.9 92 92 NW 7 11 30.18 1022 7 11 N/A
4:53 am 04:53 Cloudy 14 -10 11 -11.7 88 88 NW 7 11 30.18 1022 7 11 N/A
5:53 am 05:53 Cloudy 14 -10 10 -12.2 84 84 W 5 7 30.19 1022 7 11 N/A
6:53 am 06:53 Cloudy with Mist and Fog 10 -12.2 7 -13.9 87 87 NNW 7 11 30.22 1023 6 10 N/A
7:53 am 07:53 Cloudy with Mist and Fog 12 -11.1 9 -12.8 87 87 N N/A 30.24 1024 5 8 N/A
8:53 am 08:53 Cloudy with Mist and Fog 15 -9.4 11 -11.7 84 84 W 5 7 30.26 1025 5 8 N/A
9:53 am 09:53 Cloudy with Haze 18 -7.8 13 -10.6 81 81 NNW 3 6 30.27 1025 5 8 N/A
10:53 am 10:53 Cloudy with Light Snow 21 -6.1 14 -10 74 74 N N/A 30.26 1025 2 3 N/A
11:19 am 11:19 Cloudy with Light Snow 20 -6.7 14 -10 78 78 N N/A 30.33 1027 3 5 N/A
11:53 am 11:53 Cloudy with Light Snow 21 -6.1 14 -10 74 74 N N/A 30.24 1024 4 6 N/A
12:53 pm 12:53 Cloudy 23 -5 14 -10 68 68 N N/A 30.20 1023 8 13 N/A
1:53 pm 13:53 Mostly Cloudy 23 -5 14 -10 68 68 N N/A 30.19 1022 8 13 N/A
2:53 pm 14:53 Cloudy 21 -6.1 14 -10 74 74 N N/A 30.20 1023 7 11 N/A
3:53 pm 15:53 Mostly Cloudy with Haze 17 -8.3 12 -11.1 80 80 ESE 7 11 30.23 1024 6 10 N/A
4:53 pm 16:53 Cloudy with Haze 17 -8.3 12 -11.1 80 80 ESE 7 11 30.22 1023 5 8 N/A
5:53 pm 17:53 Cloudy with Mist and Fog 15 -9.4 11 -11.7 84 84 E 6 9 30.23 1024 6 10 N/A
6:53 pm 18:53 Cloudy with Haze 16 -8.9 11 -11.7 80 80 E 6 9 30.24 1024 6 10 N/A
7:53 pm 19:53 Clear with Mist and Fog 10 -12.2 7 -13.9 87 87 N N/A 30.26 1025 5 8 N/A
8:53 pm 20:53 Cloudy with Mist and Fog 13 -10.6 9 -12.8 84 84 E 6 9 30.24 1024 6 10 N/A
9:53 pm 21:53 Cloudy with Mist and Fog 14 -10 10 -12.2 84 84 ESE 5 7 30.23 1024 6 10 N/A
10:53 pm 22:53 Cloudy with Mist and Fog 12 -11.1 8 -13.3 84 84 N N/A 30.22 1023 5 8 N/A
11:53 pm 23:53 Cloudy with Mist and Fog 15 -9.4 11 -11.7 84 84 N 5 7 30.21 1023 5 8 N/A

Powered by AerisWeather